Wind_Speed
18 18 18 18 18 18 18 18 18 18 19 19 19 19 19 19 19 20 20 20 19 19 20 19 19 18 18 18 18 19 18 18 19 19 19 20 20 20
19 20 20 20 20 20 20 20 19 19 20 20 20 20 20 20 20 21 21 20 20 20 20 19 19 19 19 19 19 19 20 20 20 21 21 21 21 22
21 21 21 21 21 22 22 22 21 21 20 20 21 21 21 21 21 21 22 20 20 20 20 20 20 20 21 21 20 20 20 21 22 23 24 24 24 23
22 22 22 23 23 23 23 23 22 23 22 22 22 23 23 22 22 22 22 22 22 21 20 20 20 20 21 21 21 21 21 22 22 23 24 24 25 25
23 23 23 24 24 25 24 24 24 24 24 24 23 23 23 23 23 22 22 22 22 22 22 21 21 21 21 22 22 22 22 23 24 24 24 26 26 26
24 25 25 25 26 26 26 26 26 25 25 24 24 24 24 24 24 23 23 23 23 23 23 22 22 23 23 22 23 23 24 24 24 24 25 26 26 26
25 26 26 26 26 26 26 27 26 26 26 25 25 25 25 24 25 25 25 24 24 24 24 23 23 24 24 23 23 23 24 25 25 24 25 25 25 25
26 26 27 27 28 27 27 27 27 27 27 27 27 26 26 26 26 26 25 25 25 25 25 24 24 24 25 24 24 24 24 25 25 25 25 25 24 24
26 26 26 27 27 28 27 27 27 27 28 27 27 27 28 28 27 26 25 25 25 25 26 25 25 25 25 25 25 25 25 25 25 25 25 24 25 25
26 27 27 27 27 28 28 28 27 27 27 27 28 28 28 27 27 27 26 26 26 25 26 25 25 25 26 26 26 25 26 26 25 26 26 26 26 26
27 27 27 27 27 28 28 28 28 28 27 27 27 27 27 27 27 28 27 26 26 26 26 26 25 26 26 26 26 25 25 25 25 26 26 26 27 27
27 28 28 28 28 28 28 28 28 28 27 27 27 26 27 27 27 28 28 27 26 26 26 26 25 25 25 26 25 26 26 26 26 26 26 27 27 28
28 28 28 28 28 28 28 28 28 28 27 27 27 27 27 27 28 28 28 28 27 26 26 26 25 25 26 25 26 27 27 27 27 27 27 28 29 29
28 28 28 28 28 28 28 28 28 28 27 26 26 26 26 26 27 27 28 27 26 26 26 26 26 26 27 27 26 27 27 28 29 29 28 29 30 30
28 29 29 29 28 28 28 28 27 27 27 26 26 26 26 26 26 26 27 27 27 26 27 27 27 27 28 28 28 27 27 28 29 29 29 30 30 30
29 29 29 29 29 28 28 27 27 27 27 27 26 25 25 25 25 25 26 27 27 27 28 28 28 28 28 29 29 28 29 29 28 28 29 29 28 28
28 28 28 28 28 28 28 28 27 27 26 27 27 26 25 25 25 25 25 26 27 27 27 28 28 28 29 29 29 29 29 29 29 29 28 27 26 27
29 29 28 28 28 28 27 27 27 27 26 26 26 25 24 24 24 24 25 25 26 26 27 28 29 29 28 28 29 29 29 29 29 29 29 28 28 27
29 29 28 28 28 28 28 27 26 26 25 25 25 25 24 24 24 24 25 25 26 26 26 27 28 29 29 29 29 29 29 28 28 28 27 27 26 26
29 29 28 28 28 27 26 26 25 25 25 25 25 25 25 26 25 25 25 26 26 26 27 28 28 29 29 29 29 29 29 28 28 28 27 27 26 26
28 28 28 27 27 26 26 26 25 25 24 25 25 26 26 27 27 26 27 27 27 28 28 28 28 29 30 30 29 29 29 28 27 27 27 27 27 27
27 27 27 27 26 26 26 25 25 25 25 25 26 26 27 27 27 27 28 27 27 28 27 27 27 29 30 30 29 29 29 28 27 27 28 28 28 28
27 27 26 26 26 26 26 26 26 26 26 26 27 27 27 26 27 27 27 27 27 27 27 27 28 29 29 29 29 29 29 28 28 28 28 28 28 28
Wind_Direction
281 282 284 285 285 284 286 287 285 283 282 282 284 285 287 288 287 287 287 289 289 289 288 288 286 284 282 284 283 280 281 281 282 280 279 276 274 273
279 279 281 282 283 284 285 287 285 285 283 282 283 285 285 287 287 288 287 285 284 286 284 282 282 282 281 282 284 283 281 280 281 280 278 277 276 275
279 278 278 280 280 282 284 283 283 284 285 285 284 284 285 287 286 285 287 287 286 286 282 279 280 282 281 279 280 283 281 279 279 280 279 277 277 276
278 277 277 278 279 281 282 281 281 282 283 284 284 283 284 285 286 285 286 286 285 288 285 281 279 280 281 280 279 281 281 280 279 279 276 276 277 276
277 278 279 278 279 280 279 279 280 282 283 283 283 281 282 283 284 286 286 286 286 286 287 284 282 281 281 281 281 281 281 280 280 280 279 277 277 275
278 280 281 281 280 278 278 278 280 281 283 283 283 281 281 280 282 283 285 286 286 286 287 285 283 283 282 281 281 281 281 282 283 282 281 279 278 276
280 280 281 281 281 279 278 277 278 279 281 282 282 282 281 279 280 281 283 283 284 285 285 284 282 282 282 281 281 282 282 283 284 285 284 281 281 280
283 282 282 282 281 281 280 278 278 278 280 281 282 282 282 281 280 280 281 282 283 284 284 284 283 281 281 281 281 281 281 282 283 284 284 283 280 279
282 283 283 283 282 282 282 281 280 280 281 280 280 281 282 283 282 281 281 283 283 282 283 283 283 282 281 280 281 281 282 281 280 280 282 282 280 280
281 283 284 285 285 283 284 284 282 281 282 281 280 280 280 281 281 282 282 283 284 283 282 282 281 281 282 281 282 282 280 281 281 281 281 281 281 281
281 283 283 285 286 285 284 284 285 283 282 281 281 280 279 279 280 281 282 283 283 283 283 282 281 282 284 282 281 281 280 281 283 284 282 281 281 280
281 283 284 285 286 286 285 285 285 285 283 280 280 280 279 279 279 279 279 280 280 282 284 285 284 284 284 283 281 280 280 282 284 285 283 281 281 280
282 283 284 285 286 286 286 285 285 285 283 281 281 279 278 278 278 278 278 278 280 282 285 285 285 285 285 284 282 281 281 282 283 283 282 281 281 281
282 282 283 285 286 286 285 285 285 285 284 283 281 280 278 278 277 278 278 280 281 282 284 285 286 286 285 285 284 283 282 282 281 281 282 281 282 281
283 283 283 284 286 287 287 285 284 283 282 283 282 280 277 276 277 280 280 281 280 280 281 283 285 286 285 285 286 285 285 284 283 282 282 282 282 281
283 283 284 284 285 286 287 285 283 283 281 281 281 280 279 278 279 279 280 279 280 281 280 282 284 285 285 286 286 286 285 285 284 284 283 282 282 282
283 284 285 285 285 284 284 285 285 283 281 280 281 281 281 280 279 279 279 279 280 281 282 282 283 284 285 286 287 287 287 286 285 285 284 282 280 281
282 284 284 284 284 283 282 283 284 283 282 281 281 281 281 281 280 279 279 280 281 282 283 283 283 284 284 284 287 289 288 286 285 285 284 283 280 280
281 282 283 282 282 282 282 282 283 283 281 280 280 279 279 280 280 281 280 280 280 281 282 284 284 284 285 285 286 287 288 287 286 283 283 283 282 281
281 281 282 283 283 283 283 283 281 281 281 280 279 278 278 278 280 281 280 281 281 281 282 283 283 284 284 286 286 286 287 287 285 284 283 283 282 282
281 282 283 284 283 283 284 282 280 280 280 280 279 279 279 279 278 279 280 280 281 281 282 283 283 284 285 285 285 285 286 286 286 285 284 283 283 283
280 282 282 282 283 282 282 281 280 279 280 281 280 280 280 279 278 277 280 280 281 281 282 283 285 285 285 285 284 282 283 283 284 283 282 283 284 283
280 282 282 282 282 283 280 280 279 279 280 281 279 279 279 278 278 278 280 280 280 280 282 284 286 287 286 286 284 281 280 281 281 281 281 282 283 282
Height
5835 5834 5834 5833 5833 5833 5832 5831 5831 5831 5832 5831 5831 5831 5830 5829 5829 5828 5828 5827 5826 5826 5825 5824 5824 5823 5823 5823 5822 5822 5822 5821 5821 5821 5821 5821 5821 5821
5830 5829 5829 5828 5828 5828 5827 5826 5826 5826 5826 5826 5826 5825 5825 5824 5824 5823 5822 5821 5821 5820 5819 5819 5818 5818 5818 5818 5817 5817 5817 5816 5816 5816 5816 5815 5815 5815
5824 5824 5823 5823 5823 5822 5822 5821 5820 5820 5821 5821 5820 5819 5819 5818 5818 5817 5816 5815 5815 5815 5814 5813 5813 5812 5812 5812 5812 5812 5811 5811 5810 5810 5810 5809 5809 5809
5818 5818 5818 5817 5817 5816 5816 5815 5815 5815 5815 5815 5814 5813 5813 5812 5811 5811 5811 5810 5809 5809 5808 5807 5807 5807 5806 5806 5806 5805 5805 5804 5804 5804 5803 5803 5802 5802
5812 5811 5811 5811 5810 5809 5809 5809 5809 5809 5808 5808 5808 5807 5807 5806 5805 5805 5804 5803 5803 5803 5802 5801 5801 5801 5800 5800 5799 5799 5799 5798 5797 5797 5796 5795 5795 5794
5806 5805 5804 5804 5803 5802 5802 5802 5802 5802 5801 5801 5801 5800 5800 5799 5799 5798 5798 5797 5797 5796 5796 5795 5795 5794 5794 5793 5793 5792 5791 5791 5790 5789 5788 5788 5787 5786
5799 5798 5797 5796 5796 5795 5795 5794 5794 5794 5793 5793 5793 5793 5793 5792 5792 5791 5791 5791 5790 5789 5789 5789 5788 5788 5787 5786 5785 5785 5784 5783 5782 5781 5780 5779 5779 5778
5792 5791 5790 5789 5788 5787 5787 5787 5787 5786 5786 5786 5786 5786 5786 5785 5784 5783 5783 5783 5783 5783 5782 5781 5780 5780 5779 5778 5777 5777 5776 5775 5774 5773 5772 5771 5771 5770
5785 5784 5783 5782 5781 5780 5779 5779 5778 5778 5778 5778 5778 5778 5777 5777 5776 5776 5776 5775 5775 5774 5774 5773 5772 5771 5771 5770 5769 5769 5768 5767 5766 5765 5764 5763 5763 5762
5778 5777 5776 5775 5774 5773 5772 5772 5771 5770 5770 5770 5770 5770 5769 5769 5768 5768 5768 5768 5768 5767 5766 5765 5764 5764 5763 5762 5761 5760 5759 5758 5757 5757 5756 5755 5755 5754
5771 5770 5769 5768 5767 5765 5765 5764 5764 5763 5762 5761 5761 5761 5761 5761 5760 5761 5760 5760 5760 5759 5758 5758 5757 5756 5756 5754 5753 5752 5751 5750 5749 5748 5747 5747 5746 5745
5763 5763 5761 5760 5759 5758 5757 5757 5756 5755 5754 5754 5753 5753 5753 5753 5752 5752 5752 5752 5752 5752 5751 5749 5749 5748 5748 5746 5745 5743 5742 5742 5741 5740 5739 5738 5737 5736
5756 5755 5754 5753 5752 5750 5749 5749 5748 5747 5746 5746 5745 5745 5744 5744 5744 5744 5744 5743 5743 5743 5743 5741 5740 5739 5738 5738 5737 5735 5734 5733 5732 5731 5730 5729 5728 5727
5748 5747 5746 5745 5744 5743 5742 5741 5740 5739 5738 5737 5737 5737 5736 5736 5736 5735 5735 5735 5734 5735 5734 5732 5732 5730 5730 5729 5728 5727 5725 5724 5723 5722 5721 5720 5719 5717
5740 5739 5738 5737 5736 5735 5734 5733 5732 5731 5730 5729 5729 5729 5728 5728 5727 5727 5727 5726 5726 5726 5725 5724 5723 5722 5721 5720 5719 5718 5716 5715 5713 5712 5711 5710 5709 5708
5732 5731 5730 5729 5728 5727 5726 5725 5724 5723 5722 5722 5721 5720 5720 5719 5719 5719 5719 5718 5718 5717 5716 5715 5714 5713 5712 5711 5710 5708 5707 5706 5704 5703 5702 5701 5699 5698
5723 5722 5721 5721 5720 5719 5718 5717 5716 5715 5714 5713 5713 5712 5711 5711 5711 5711 5710 5710 5709 5708 5708 5707 5706 5705 5704 5702 5701 5699 5698 5696 5695 5694 5693 5692 5691 5690
5715 5714 5713 5712 5711 5711 5710 5709 5708 5707 5706 5705 5705 5704 5703 5703 5703 5703 5702 5701 5700 5700 5699 5698 5697 5696 5695 5694 5692 5691 5689 5688 5686 5685 5683 5683 5682 5681
5707 5706 5705 5704 5703 5702 5701 5700 5700 5699 5698 5697 5697 5696 5696 5695 5694 5694 5693 5693 5692 5691 5690 5689 5688 5687 5686 5686 5684 5682 5680 5679 5677 5676 5675 5674 5673 5673
5698 5697 5696 5695 5694 5694 5693 5692 5691 5691 5690 5689 5689 5688 5688 5687 5686 5686 5685 5684 5683 5682 5682 5680 5679 5678 5677 5676 5675 5673 5671 5670 5668 5667 5666 5665 5665 5664
5690 5689 5688 5687 5686 5685 5685 5684 5683 5683 5682 5682 5681 5680 5679 5679 5678 5677 5677 5676 5675 5674 5673 5672 5670 5669 5668 5667 5666 5664 5663 5661 5660 5658 5657 5656 5656 5655
5681 5680 5680 5679 5678 5677 5677 5676 5675 5675 5674 5674 5673 5672 5671 5670 5670 5669 5668 5667 5666 5665 5664 5663 5662 5660 5659 5657 5656 5655 5654 5653 5651 5650 5648 5648 5647 5646
5673 5672 5672 5671 5670 5669 5668 5668 5667 5667 5666 5665 5664 5664 5663 5662 5661 5660 5659 5659 5658 5656 5655 5654 5653 5651 5649 5648 5647 5646 5645 5644 5643 5642 5640 5639 5638 5637